When you browse on this site, cookies collect data to enhance your experience and personalize the content and advertising you see.
Visit our Privacy Policy to learn more. By continuing to use the site, you agree to this use of cookies and data.
  • In Hungary
  • List of Countries
  • For 7 days
  • Water Temperature
  • Weather Map
  • News
  • Weather Widgets
  • user-avatar
    Login

    Hourly Weather Prikubanskiy

    Today, 22 October, Tuesday

    Time Temperature Precipitation Wind Pressure Humidity
    00:00 +13°C° 0 mm 3 mps 764 mmHg 71%
    01:00 +14°C° 0 mm 2 mps 764 mmHg 73%
    02:00 +13°C° 0 mm 2 mps 764 mmHg 75%
    03:00 +13°C° 0 mm 2 mps 764 mmHg 79%
    04:00 +12°C° 0 mm 2 mps 764 mmHg 80%
    05:00 +12°C° 0 mm 2 mps 764 mmHg 82%
    06:00 +10°C° 0 mm 2 mps 764 mmHg 83%
    07:00 +12°C° 0 mm 2 mps 764 mmHg 79%
    08:00 +13°C° 0 mm 2 mps 764 mmHg 75%
    09:00 +15°C° 0 mm 2 mps 764 mmHg 70%
    10:00 +16°C° 0 mm 2 mps 764 mmHg 63%
    11:00 +18°C° 0 mm 2 mps 764 mmHg 57%
    12:00 +20°C° 0 mm 2 mps 764 mmHg 51%
    13:00 +21°C° 0 mm 2 mps 764 mmHg 48%
    14:00 +22°C° 0 mm 3 mps 764 mmHg 46%
    15:00 +22°C° 0 mm 3 mps 764 mmHg 43%
    16:00 +20°C° 0 mm 3 mps 764 mmHg 46%
    17:00 +19°C° 0 mm 3 mps 764 mmHg 49%
    18:00 +18°C° 0 mm 3 mps 764 mmHg 52%
    19:00 +17°C° 0 mm 3 mps 764 mmHg 53%
    20:00 +16°C° 0 mm 3 mps 764 mmHg 55%
    21:00 +15°C° 0 mm 2 mps 764 mmHg 56%
    22:00 +15°C° 0 mm 2 mps 764 mmHg 58%
    23:00 +15°C° 0 mm 2 mps 764 mmHg 59%

    Tomorrow, 23 October, Wednesday

    Time Temperature Precipitation Wind Pressure Humidity
    00:00 +14°C° 0 mm 2 mps 764 mmHg 61%
    01:00 +14°C° 0 mm 2 mps 764 mmHg 63%
    02:00 +13°C° 0 mm 2 mps 764 mmHg 65%
    03:00 +13°C° 0 mm 1 mps 764 mmHg 67%
    04:00 +13°C° 0 mm 1 mps 764 mmHg 68%
    05:00 +12°C° 0 mm 1 mps 764 mmHg 69%
    06:00 +12°C° 0 mm 1 mps 764 mmHg 70%
    07:00 +13°C° 0 mm 1 mps 764 mmHg 66%
    08:00 +14°C° 0 mm 1 mps 764 mmHg 61%
    09:00 +16°C° 0 mm 1 mps 764 mmHg 57%
    10:00 +17°C° 0 mm 2 mps 764 mmHg 50%
    11:00 +19°C° 0 mm 2 mps 764 mmHg 44%
    12:00 +21°C° 0 mm 2 mps 764 mmHg 38%
    13:00 +21°C° 0 mm 2 mps 764 mmHg 36%
    14:00 +23°C° 0 mm 2 mps 764 mmHg 34%
    15:00 +24°C° 0 mm 2 mps 763 mmHg 32%
    16:00 +21°C° 0 mm 2 mps 763 mmHg 36%
    17:00 +20°C° 0 mm 2 mps 763 mmHg 40%
    18:00 +18°C° 0 mm 2 mps 763 mmHg 44%
    19:00 +18°C° 0 mm 2 mps 763 mmHg 46%
    20:00 +17°C° 0 mm 2 mps 763 mmHg 48%
    21:00 +17°C° 0 mm 2 mps 764 mmHg 49%
    22:00 +16°C° 0 mm 2 mps 763 mmHg 51%
    23:00 +16°C° 0 mm 2 mps 763 mmHg 52%

    Day after tomorrow, 24 October, Thursday

    Time Temperature Precipitation Wind Pressure Humidity
    00:00 +15°C° 0 mm 1 mps 763 mmHg 54%
    01:00 +15°C° 0 mm 1 mps 763 mmHg 55%
    02:00 +15°C° 0 mm 1 mps 763 mmHg 57%
    03:00 +14°C° 0 mm 1 mps 763 mmHg 59%
    04:00 +14°C° 0 mm 1 mps 763 mmHg 60%
    05:00 +13°C° 0 mm 0 mps 763 mmHg 62%
    06:00 +12°C° 0 mm 0 mps 763 mmHg 64%
    07:00 +13°C° 0 mm 0 mps 763 mmHg 61%
    08:00 +14°C° 0 mm 0 mps 764 mmHg 58%
    09:00 +15°C° 0 mm 0 mps 764 mmHg 55%
    10:00 +19°C° 0 mm 1 mps 763 mmHg 49%
    11:00 +21°C° 0 mm 1 mps 763 mmHg 44%
    12:00 +23°C° 0 mm 1 mps 763 mmHg 38%
    13:00 +23°C° 0 mm 1 mps 763 mmHg 37%
    14:00 +23°C° 0 mm 1 mps 763 mmHg 36%
    15:00 +24°C° 0 mm 1 mps 762 mmHg 35%
    16:00 +22°C° 0 mm 1 mps 762 mmHg 38%
    17:00 +21°C° 0 mm 1 mps 762 mmHg 42%
    18:00 +17°C° 0 mm 0 mps 762 mmHg 46%
    19:00 +17°C° 0 mm 0 mps 762 mmHg 47%
    20:00 +18°C° 0 mm 1 mps 762 mmHg 49%
    21:00 +18°C° 0 mm 1 mps 762 mmHg 51%
    22:00 +15°C° 0 mm 0 mps 762 mmHg 52%
    23:00 +15°C° 0 mm 0 mps 762 mmHg 54%

    25 October, Friday

    Time Temperature Precipitation Wind Pressure Humidity
    00:00 +14°C° 0 mm 0 mps 762 mmHg 55%
    01:00 +14°C° 0 mm 0 mps 762 mmHg 57%
    02:00 +14°C° 0 mm 0 mps 762 mmHg 58%
    03:00 +13°C° 0 mm 0 mps 762 mmHg 60%
    04:00 +13°C° 0 mm 0 mps 762 mmHg 61%
    05:00 +12°C° 0 mm 0 mps 762 mmHg 62%
    06:00 +12°C° 0 mm 0 mps 762 mmHg 63%
    07:00 +13°C° 0 mm 0 mps 762 mmHg 60%
    08:00 +15°C° 0 mm 0 mps 762 mmHg 56%
    09:00 +16°C° 0 mm 0 mps 762 mmHg 52%
    10:00 +17°C° 0 mm 0 mps 762 mmHg 48%
    11:00 +19°C° 0 mm 0 mps 762 mmHg 44%
    12:00 +22°C° 0 mm 1 mps 761 mmHg 39%
    13:00 +23°C° 0 mm 1 mps 761 mmHg 38%
    14:00 +23°C° 0 mm 1 mps 761 mmHg 37%
    15:00 +23°C° 0 mm 1 mps 761 mmHg 36%
    16:00 +22°C° 0 mm 1 mps 761 mmHg 40%
    17:00 +19°C° 0 mm 0 mps 761 mmHg 44%
    18:00 +17°C° 0 mm 0 mps 761 mmHg 48%
    19:00 +17°C° 0 mm 0 mps 761 mmHg 50%
    20:00 +16°C° 0 mm 0 mps 761 mmHg 52%
    21:00 +16°C° 0 mm 1 mps 761 mmHg 54%
    22:00 +16°C° 0 mm 1 mps 761 mmHg 56%
    23:00 +15°C° 0 mm 1 mps 761 mmHg 59%

    26 October, Saturday

    Time Temperature Precipitation Wind Pressure Humidity
    00:00 +15°C° 0 mm 1 mps 761 mmHg 61%
    01:00 +14°C° 0 mm 1 mps 761 mmHg 63%
    02:00 +14°C° 0 mm 1 mps 761 mmHg 64%
    03:00 +14°C° 0 mm 1 mps 761 mmHg 66%
    04:00 +13°C° 0 mm 1 mps 761 mmHg 67%
    05:00 +13°C° 0 mm 1 mps 761 mmHg 68%
    06:00 +13°C° 0 mm 1 mps 762 mmHg 70%
    07:00 +14°C° 0 mm 1 mps 762 mmHg 65%
    08:00 +14°C° 0 mm 0 mps 762 mmHg 61%
    09:00 +15°C° 0 mm 0 mps 762 mmHg 57%
    10:00 +17°C° 0 mm 0 mps 762 mmHg 52%
    11:00 +19°C° 0 mm 0 mps 762 mmHg 47%
    12:00 +20°C° 0 mm 0 mps 762 mmHg 42%
    13:00 +21°C° 0 mm 0 mps 762 mmHg 41%
    14:00 +21°C° 0 mm 0 mps 762 mmHg 40%
    15:00 +23°C° 0 mm 1 mps 761 mmHg 39%
    16:00 +20°C° 0 mm 0 mps 761 mmHg 43%
    17:00 +18°C° 0 mm 0 mps 761 mmHg 47%
    18:00 +17°C° 0 mm 0 mps 761 mmHg 51%
    19:00 +16°C° 0 mm 0 mps 761 mmHg 53%
    20:00 +18°C° 0 mm 1 mps 761 mmHg 55%
    21:00 +16°C° 0 mm 1 mps 761 mmHg 57%
    22:00 +16°C° 0 mm 1 mps 761 mmHg 59%
    23:00 +15°C° 0 mm 1 mps 761 mmHg 61%

    27 October, Sunday

    Time Temperature Precipitation Wind Pressure Humidity
    00:00 +15°C° 0 mm 1 mps 761 mmHg 63%
    01:00 +14°C° 0 mm 1 mps 761 mmHg 65%
    02:00 +14°C° 0 mm 1 mps 761 mmHg 67%
    03:00 +14°C° 0 mm 1 mps 761 mmHg 68%
    04:00 +13°C° 0 mm 1 mps 761 mmHg 70%
    05:00 +13°C° 0 mm 1 mps 761 mmHg 71%
    06:00 +13°C° 0 mm 1 mps 761 mmHg 72%
    07:00 +14°C° 0 mm 1 mps 761 mmHg 68%
    08:00 +15°C° 0 mm 1 mps 761 mmHg 64%
    09:00 +16°C° 0 mm 1 mps 761 mmHg 61%
    10:00 +19°C° 0.1 mm 1 mps 761 mmHg 56%
    11:00 +20°C° 0.1 mm 1 mps 761 mmHg 52%
    12:00 +22°C° 0.1 mm 1 mps 760 mmHg 47%
    13:00 +22°C° 0.1 mm 1 mps 760 mmHg 46%
    14:00 +22°C° 0.1 mm 1 mps 760 mmHg 45%
    15:00 +22°C° 0.1 mm 1 mps 759 mmHg 44%
    16:00 +21°C° 0 mm 1 mps 759 mmHg 48%
    17:00 +20°C° 0 mm 1 mps 759 mmHg 52%
    18:00 +18°C° 0 mm 1 mps 759 mmHg 57%
    19:00 +16°C° 0 mm 1 mps 759 mmHg 60%
    20:00 +16°C° 0 mm 1 mps 759 mmHg 64%
    21:00 +15°C° 0 mm 2 mps 759 mmHg 68%
    22:00 +14°C° 0 mm 2 mps 759 mmHg 69%
    23:00 +14°C° 0 mm 2 mps 759 mmHg 71%

    28 October, Monday

    Time Temperature Precipitation Wind Pressure Humidity
    00:00 +13°C° 0 mm 2 mps 759 mmHg 73%
    01:00 +13°C° 0 mm 2 mps 759 mmHg 74%
    02:00 +13°C° 0 mm 2 mps 759 mmHg 76%
    03:00 +13°C° 0 mm 1 mps 759 mmHg 77%
    04:00 +12°C° 0 mm 1 mps 759 mmHg 79%
    05:00 +12°C° 0 mm 2 mps 759 mmHg 80%
    06:00 +12°C° 0 mm 2 mps 759 mmHg 81%
    07:00 +13°C° 0 mm 2 mps 759 mmHg 77%
    08:00 +15°C° 0 mm 2 mps 759 mmHg 72%
    09:00 +16°C° 0 mm 2 mps 759 mmHg 67%
    10:00 +17°C° 0 mm 3 mps 759 mmHg 61%
    11:00 +19°C° 0 mm 3 mps 759 mmHg 55%
    12:00 +21°C° 0 mm 4 mps 759 mmHg 49%
    13:00 +21°C° 0 mm 4 mps 759 mmHg 49%
    14:00 +21°C° 0 mm 5 mps 759 mmHg 49%
    15:00 +21°C° 0 mm 5 mps 759 mmHg 48%
    16:00 +20°C° 0 mm 5 mps 759 mmHg 55%
    17:00 +18°C° 0 mm 4 mps 758 mmHg 62%
    18:00 +17°C° 0 mm 4 mps 758 mmHg 69%
    19:00 +17°C° 0 mm 4 mps 759 mmHg 72%
    20:00 +15°C° 0 mm 4 mps 759 mmHg 75%
    21:00 +16°C° 0 mm 3 mps 759 mmHg 77%
    22:00 +16°C° 0 mm 3 mps 759 mmHg 77%
    23:00 +16°C° 0 mm 3 mps 759 mmHg 77%
    Show more